ProjectID,Date,Electric Generation,Electric Utility Import,Facility Electric Load
,YYYY-MM-DD,kW,kW,kW
130,2013-08-01,0.0,,0.0
130,2013-08-02,0.0,,0.0
130,2013-08-03,0.0,,0.0
130,2013-08-04,0.0,,0.0
130,2013-08-05,1.5833333333333333,,1.5833333333333333
130,2013-08-06,4.833333333333333,,4.833333333333333
130,2013-08-07,2.375,,2.375
130,2013-08-08,1.875,,1.875
130,2013-08-09,1.7083333333333333,,1.7083333333333333
130,2013-08-10,4.0,,4.0
130,2013-08-11,4.0,,4.0
130,2013-08-12,3.0416666666666665,,3.0416666666666665
130,2013-08-13,2.5,,2.5
130,2013-08-14,4.916666666666667,,4.916666666666667
130,2013-08-15,4.625,,4.625
130,2013-08-16,4.375,,4.375
130,2013-08-17,4.583333333333333,,4.583333333333333
130,2013-08-18,2.25,,2.25
130,2013-08-19,2.875,,2.875
130,2013-08-20,4.541666666666667,,4.541666666666667
130,2013-08-21,4.375,,4.375
130,2013-08-22,1.8333333333333333,,1.8333333333333333
130,2013-08-23,3.7916666666666665,,3.7916666666666665
130,2013-08-24,4.958333333333333,,4.958333333333333
130,2013-08-25,4.708333333333333,,4.708333333333333
130,2013-08-26,2.5416666666666665,,2.5416666666666665
130,2013-08-27,3.5833333333333335,,3.5833333333333335
130,2013-08-28,2.9166666666666665,,2.9166666666666665
130,2013-08-29,2.7083333333333335,,2.7083333333333335
130,2013-08-30,3.0416666666666665,,3.0416666666666665
130,2013-08-31,2.7083333333333335,,2.7083333333333335
130,2013-09-01,2.4166666666666665,,2.4166666666666665
130,2013-09-02,2.2916666666666665,,2.2916666666666665
130,2013-09-03,2.875,,2.875
130,2013-09-04,4.666666666666667,,4.666666666666667
130,2013-09-05,3.6666666666666665,,3.6666666666666665
130,2013-09-06,4.5,,4.5
130,2013-09-07,2.8333333333333335,,2.8333333333333335
130,2013-09-08,3.625,,3.625
130,2013-09-09,3.9583333333333335,,3.9583333333333335
130,2013-09-10,2.5416666666666665,,2.5416666666666665
130,2013-09-11,3.875,,3.875
130,2013-09-12,3.25,,3.25
130,2013-09-13,10.583333333333334,,10.583333333333334
130,2013-09-14,13.583333333333334,,13.583333333333334
130,2013-09-15,16.958333333333332,,16.958333333333332
130,2013-09-16,9.333333333333334,,9.333333333333334
130,2013-09-17,0.875,,0.875
130,2013-09-18,18.833333333333332,,18.833333333333332
130,2013-09-19,18.208333333333332,,18.208333333333332
130,2013-09-20,17.333333333333332,,17.333333333333332
130,2013-09-21,8.75,,8.75
130,2013-09-22,17.0,,17.0
130,2013-09-23,18.916666666666668,,18.916666666666668
130,2013-09-24,18.25,,18.25
130,2013-09-25,15.958333333333334,,15.958333333333334
130,2013-09-26,12.791666666666666,,12.791666666666666
130,2013-09-27,8.625,,8.625
130,2013-09-28,17.208333333333332,,17.208333333333332
130,2013-09-29,16.125,,16.125
130,2013-09-30,16.916666666666668,,16.916666666666668
130,2013-10-01,16.166666666666668,,16.166666666666668
130,2013-10-02,15.416666666666666,,15.416666666666666
130,2013-10-03,12.5,,12.5
130,2013-10-04,11.083333333333334,,11.083333333333334
130,2013-10-05,7.875,,7.875
130,2013-10-06,1.4166666666666667,,1.4166666666666667
130,2013-10-07,4.333333333333333,,4.333333333333333
130,2013-10-08,14.583333333333334,,14.583333333333334
130,2013-10-09,9.625,,9.625
130,2013-10-10,4.791666666666667,,4.791666666666667
130,2013-10-11,4.166666666666667,,4.166666666666667
130,2013-10-12,13.958333333333334,,13.958333333333334
130,2013-10-13,8.25,,8.25
130,2013-10-14,13.583333333333334,,13.583333333333334
130,2013-10-15,14.666666666666666,,14.666666666666666
130,2013-10-16,4.833333333333333,,4.833333333333333
130,2013-10-17,8.416666666666666,,8.416666666666666
130,2013-10-18,14.666666666666666,,14.666666666666666
130,2013-10-19,7.333333333333333,,7.333333333333333
130,2013-10-20,14.75,,14.75
130,2013-10-21,13.916666666666666,,13.916666666666666
130,2013-10-22,8.0,,8.0
130,2013-10-23,4.5,,4.5
130,2013-10-24,13.625,,13.625
130,2013-10-25,12.458333333333334,,12.458333333333334
130,2013-10-26,13.541666666666666,,13.541666666666666
130,2013-10-27,12.333333333333334,,12.333333333333334
130,2013-10-28,13.125,,13.125
130,2013-10-29,9.416666666666666,,9.416666666666666
130,2013-10-30,3.4583333333333335,,3.4583333333333335
130,2013-10-31,2.5416666666666665,,2.5416666666666665
130,2013-11-01,3.4166666666666665,,3.4166666666666665
130,2013-11-02,10.041666666666666,,10.041666666666666
130,2013-11-03,8.041666666666666,,8.041666666666666
130,2013-11-04,13.291666666666666,,13.291666666666666
130,2013-11-05,8.541666666666666,,8.541666666666666
130,2013-11-06,0.0,,0.0
130,2013-11-07,1.5,,1.5
130,2013-11-08,10.25,,10.25
130,2013-11-09,5.958333333333333,,5.958333333333333
130,2013-11-10,1.125,,1.125
130,2013-11-11,0.0,,0.0
130,2013-11-12,2.75,,2.75
130,2013-11-13,9.166666666666666,,9.166666666666666
130,2013-11-14,11.708333333333334,,11.708333333333334
130,2013-11-15,7.958333333333333,,7.958333333333333
130,2013-11-16,9.041666666666666,,9.041666666666666
130,2013-11-17,1.2083333333333333,,1.2083333333333333
130,2013-11-18,9.875,,9.875
130,2013-11-19,10.708333333333334,,10.708333333333334
130,2013-11-20,10.708333333333334,,10.708333333333334
130,2013-11-21,8.958333333333334,,8.958333333333334
130,2013-11-22,2.0416666666666665,,2.0416666666666665
130,2013-11-23,8.625,,8.625
130,2013-11-24,10.833333333333334,,10.833333333333334
130,2013-11-25,10.5,,10.5
130,2013-11-26,2.2083333333333335,,2.2083333333333335
130,2013-11-27,0.625,,0.625
130,2013-11-28,10.166666666666666,,10.166666666666666
130,2013-11-29,9.166666666666666,,9.166666666666666
130,2013-11-30,9.375,,9.375
130,2013-12-01,7.166666666666667,,7.166666666666667
130,2013-12-02,2.75,,2.75
130,2013-12-03,6.708333333333333,,6.708333333333333
130,2013-12-04,6.625,,6.625
130,2013-12-05,1.0416666666666667,,1.0416666666666667
130,2013-12-06,0.6666666666666666,,0.6666666666666666
130,2013-12-07,5.708333333333333,,5.708333333333333
130,2013-12-08,2.0416666666666665,,2.0416666666666665
130,2013-12-09,1.4583333333333333,,1.4583333333333333
130,2013-12-10,0.0,,0.0
130,2013-12-11,0.7083333333333334,,0.7083333333333334
130,2013-12-12,1.1666666666666667,,1.1666666666666667
130,2013-12-13,1.625,,1.625
130,2013-12-14,0.041666666666666664,,0.041666666666666664
130,2013-12-15,4.458333333333333,,4.458333333333333
130,2013-12-16,7.5,,7.5
130,2013-12-17,0.0,,0.0
130,2013-12-18,0.4166666666666667,,0.4166666666666667
130,2013-12-19,4.708333333333333,,4.708333333333333
130,2013-12-20,4.875,,4.875
130,2013-12-21,6.541666666666667,,6.541666666666667
130,2013-12-22,2.1666666666666665,,2.1666666666666665
130,2013-12-23,0.4166666666666667,,0.4166666666666667
130,2013-12-24,7.583333333333333,,7.583333333333333
130,2013-12-25,8.083333333333334,,8.083333333333334
130,2013-12-26,3.25,,3.25
130,2013-12-27,6.583333333333333,,6.583333333333333
130,2013-12-28,7.125,,7.125
130,2013-12-29,0.625,,0.625
130,2013-12-30,2.5833333333333335,,2.5833333333333335
130,2013-12-31,5.333333333333333,,5.333333333333333
130,2014-01-01,5.833333333333333,,5.833333333333333
130,2014-01-02,0.125,,0.125
130,2014-01-03,0.9583333333333334,,0.9583333333333334
130,2014-01-04,3.25,,3.25
130,2014-01-05,0.4166666666666667,,0.4166666666666667
130,2014-01-06,1.2916666666666667,,1.2916666666666667
130,2014-01-07,10.083333333333334,,10.083333333333334
130,2014-01-08,9.958333333333334,,9.958333333333334
130,2014-01-09,9.541666666666666,,9.541666666666666
130,2014-01-10,0.16666666666666666,,0.16666666666666666
130,2014-01-11,0.2916666666666667,,0.2916666666666667
130,2014-01-12,4.125,,4.125
130,2014-01-13,6.958333333333333,,6.958333333333333
130,2014-01-14,0.5416666666666666,,0.5416666666666666
130,2014-01-15,7.291666666666667,,7.291666666666667
130,2014-01-16,1.7916666666666667,,1.7916666666666667
130,2014-01-17,9.875,,9.875
130,2014-01-18,2.8333333333333335,,2.8333333333333335
130,2014-01-19,6.833333333333333,,6.833333333333333
130,2014-01-20,3.125,,3.125
130,2014-01-21,0.125,,0.125
130,2014-01-22,3.6666666666666665,,3.6666666666666665
130,2014-01-23,6.125,,6.125
130,2014-01-24,8.416666666666666,,8.416666666666666
130,2014-01-25,2.6666666666666665,,2.6666666666666665
130,2014-01-26,1.9166666666666667,,1.9166666666666667
130,2014-01-27,3.5416666666666665,,3.5416666666666665
130,2014-01-28,8.625,,8.625
130,2014-01-29,5.375,,5.375
130,2014-01-30,12.541666666666666,,12.541666666666666
130,2014-01-31,4.791666666666667,,4.791666666666667
130,2014-02-01,8.333333333333334,,8.333333333333334
130,2014-02-02,6.916666666666667,,6.916666666666667
130,2014-02-03,0.0,,0.0
130,2014-02-04,0.0,,0.0
130,2014-02-05,0.0,,0.0
130,2014-02-06,0.0,,0.0
130,2014-02-07,0.0,,0.0
130,2014-02-08,0.0,,0.0
130,2014-02-09,0.0,,0.0
130,2014-02-10,0.0,,0.0
130,2014-02-11,0.0,,0.0
130,2014-02-12,0.0,,0.0
130,2014-02-13,0.0,,0.0
130,2014-02-14,0.0,,0.0
130,2014-02-15,0.0,,0.0
130,2014-02-16,0.0,,0.0
130,2014-02-17,0.0,,0.0
130,2014-02-18,0.0,,0.0
130,2014-02-19,0.0,,0.0
130,2014-02-20,0.0,,0.0
130,2014-02-21,0.0,,0.0
130,2014-02-22,0.0,,0.0
130,2014-02-23,0.0,,0.0
130,2014-02-24,0.0,,0.0
130,2014-02-25,0.0,,0.0
130,2014-02-26,0.0,,0.0
130,2014-02-27,0.0,,0.0
130,2014-02-28,0.0,,0.0
130,2014-03-01,0.0,,0.0
130,2014-03-02,0.0,,0.0
130,2014-03-03,0.0,,0.0
130,2014-03-04,0.0,,0.0
130,2014-03-05,0.0,,0.0
130,2014-03-06,0.0,,0.0
130,2014-03-07,0.0,,0.0
130,2014-03-08,0.0,,0.0
130,2014-03-09,0.0,,0.0
130,2014-03-10,0.0,,0.0
130,2014-03-11,0.0,,0.0
130,2014-03-12,0.0,,0.0
130,2014-03-13,0.0,,0.0
130,2014-03-14,0.0,,0.0
130,2014-03-15,0.0,,0.0
130,2014-03-16,0.0,,0.0
130,2014-03-17,0.0,,0.0
130,2014-03-18,0.0,,0.0
130,2014-03-19,0.0,,0.0
130,2014-03-20,0.0,,0.0
130,2014-03-21,0.0,,0.0
130,2014-03-22,0.0,,0.0
130,2014-03-23,0.0,,0.0
130,2014-03-24,0.0,,0.0
130,2014-03-25,0.0,,0.0
130,2014-03-26,0.0,,0.0
130,2014-03-27,18.583333333333332,,18.583333333333332
130,2014-03-28,0.0,,0.0
130,2014-03-29,0.0,,0.0
130,2014-03-30,0.0,,0.0
130,2014-03-31,0.0,,0.0
130,2014-04-01,0.0,,0.0
130,2014-04-02,3.625,,3.625
130,2014-04-03,0.0,,0.0
130,2014-04-04,0.0,,0.0
130,2014-04-05,0.0,,0.0
130,2014-04-06,0.0,,0.0
130,2014-04-07,4.666666666666667,,4.666666666666667
130,2014-04-08,0.0,,0.0
130,2014-04-09,20.208333333333332,,20.208333333333332
130,2014-04-10,21.875,,21.875
130,2014-04-11,0.0,,0.0
130,2014-04-12,7.291666666666667,,7.291666666666667
130,2014-04-13,17.541666666666668,,17.541666666666668
130,2014-04-14,16.666666666666668,,16.666666666666668
130,2014-04-15,1.25,,1.25
130,2014-04-16,21.416666666666668,,21.416666666666668
130,2014-04-17,21.416666666666668,,21.416666666666668
130,2014-04-18,14.458333333333334,,14.458333333333334
130,2014-04-19,21.75,,21.75
130,2014-04-20,22.708333333333332,,22.708333333333332
130,2014-04-21,22.5,,22.5
130,2014-04-22,15.583333333333334,,15.583333333333334
130,2014-04-23,15.541666666666666,,15.541666666666666
130,2014-04-24,23.416666666666668,,23.416666666666668
130,2014-04-25,19.416666666666668,,19.416666666666668
130,2014-04-26,14.583333333333334,,14.583333333333334
130,2014-04-27,17.708333333333332,,17.708333333333332
130,2014-04-28,21.583333333333332,,21.583333333333332
130,2014-04-29,4.833333333333333,,4.833333333333333
130,2014-04-30,1.2083333333333333,,1.2083333333333333
130,2014-05-01,14.666666666666666,,14.666666666666666
130,2014-05-02,15.333333333333334,,15.333333333333334
130,2014-05-03,16.791666666666668,,16.791666666666668
130,2014-05-04,15.666666666666666,,15.666666666666666
130,2014-05-05,22.958333333333332,,22.958333333333332
130,2014-05-06,19.125,,19.125
130,2014-05-07,20.25,,20.25
130,2014-05-08,3.6666666666666665,,3.6666666666666665
130,2014-05-09,4.166666666666667,,4.166666666666667
130,2014-05-10,14.958333333333334,,14.958333333333334
130,2014-05-11,22.875,,22.875
130,2014-05-12,17.666666666666668,,17.666666666666668
130,2014-05-13,19.458333333333332,,19.458333333333332
130,2014-05-14,16.166666666666668,,16.166666666666668
130,2014-05-15,4.458333333333333,,4.458333333333333
130,2014-05-16,4.375,,4.375
130,2014-05-17,11.25,,11.25
130,2014-05-18,0.0,,0.0
130,2014-05-19,0.0,,0.0
130,2014-05-20,0.0,,0.0
130,2014-05-21,0.0,,0.0
130,2014-05-22,0.0,,0.0
130,2014-05-23,0.0,,0.0
130,2014-05-24,0.0,,0.0
130,2014-05-25,0.0,,0.0
130,2014-05-26,0.0,,0.0
130,2014-05-27,0.0,,0.0
130,2014-05-28,0.0,,0.0
130,2014-05-29,24.083333333333332,,24.083333333333332
130,2014-05-30,18.166666666666668,,18.166666666666668
130,2014-05-31,16.708333333333332,,16.708333333333332
130,2014-06-01,22.541666666666668,,22.541666666666668
130,2014-06-02,22.166666666666668,,22.166666666666668
130,2014-06-03,18.625,,18.625
130,2014-06-04,17.208333333333332,,17.208333333333332
130,2014-06-05,11.125,,11.125
130,2014-06-06,19.291666666666668,,19.291666666666668
130,2014-06-07,20.291666666666668,,20.291666666666668
130,2014-06-08,20.25,,20.25
130,2014-06-09,2.25,,2.25
130,2014-06-10,10.583333333333334,,10.583333333333334
130,2014-06-11,6.375,,6.375
130,2014-06-12,5.625,,5.625
130,2014-06-13,11.708333333333334,,11.708333333333334
130,2014-06-14,16.791666666666668,,16.791666666666668
130,2014-06-15,22.375,,22.375
130,2014-06-16,21.875,,21.875
130,2014-06-17,18.083333333333332,,18.083333333333332
130,2014-06-18,21.458333333333332,,21.458333333333332
130,2014-06-19,8.791666666666666,,8.791666666666666
130,2014-06-20,21.208333333333332,,21.208333333333332
130,2014-06-21,21.875,,21.875
130,2014-06-22,21.041666666666668,,21.041666666666668
130,2014-06-23,20.458333333333332,,20.458333333333332
130,2014-06-24,18.458333333333332,,18.458333333333332
130,2014-06-25,18.708333333333332,,18.708333333333332
130,2014-06-26,15.75,,15.75
130,2014-06-27,20.666666666666668,,20.666666666666668
130,2014-06-28,20.916666666666668,,20.916666666666668
130,2014-06-29,21.5,,21.5
130,2014-06-30,15.833333333333334,,15.833333333333334
130,2014-07-01,19.875,,19.875
130,2014-07-02,18.666666666666668,,18.666666666666668
130,2014-07-03,17.833333333333332,,17.833333333333332
130,2014-07-04,7.291666666666667,,7.291666666666667
130,2014-07-05,22.5,,22.5
130,2014-07-06,21.458333333333332,,21.458333333333332
130,2014-07-07,19.375,,19.375
130,2014-07-08,17.791666666666668,,17.791666666666668
130,2014-07-09,17.166666666666668,,17.166666666666668
130,2014-07-10,17.583333333333332,,17.583333333333332
130,2014-07-11,19.916666666666668,,19.916666666666668
130,2014-07-12,20.5,,20.5
130,2014-07-13,15.916666666666666,,15.916666666666666
130,2014-07-14,11.333333333333334,,11.333333333333334
130,2014-07-15,11.0,,11.0
130,2014-07-16,13.5,,13.5
130,2014-07-17,16.833333333333332,,16.833333333333332
130,2014-07-18,20.708333333333332,,20.708333333333332
130,2014-07-19,11.458333333333334,,11.458333333333334
130,2014-07-20,19.125,,19.125
130,2014-07-21,20.25,,20.25
130,2014-07-22,18.75,,18.75
130,2014-07-23,19.041666666666668,,19.041666666666668
130,2014-07-24,16.041666666666668,,16.041666666666668
130,2014-07-25,20.583333333333332,,20.583333333333332
130,2014-07-26,11.041666666666666,,11.041666666666666
130,2014-07-27,13.791666666666666,,13.791666666666666
130,2014-07-28,13.75,,13.75
130,2014-07-29,18.166666666666668,,18.166666666666668
130,2014-07-30,18.458333333333332,,18.458333333333332
130,2014-07-31,16.291666666666668,,16.291666666666668
130,2014-08-01,12.791666666666666,,12.791666666666666
130,2014-08-02,10.583333333333334,,10.583333333333334
130,2014-08-03,15.875,,15.875
130,2014-08-04,16.041666666666668,,16.041666666666668
130,2014-08-05,19.708333333333332,,19.708333333333332
130,2014-08-06,17.75,,17.75
130,2014-08-07,19.041666666666668,,19.041666666666668
130,2014-08-08,18.208333333333332,,18.208333333333332
130,2014-08-09,17.125,,17.125
130,2014-08-10,18.708333333333332,,18.708333333333332
130,2014-08-11,18.375,,18.375
130,2014-08-12,7.75,,7.75
130,2014-08-13,10.333333333333334,,10.333333333333334
130,2014-08-14,18.75,,18.75
130,2014-08-15,13.375,,13.375
130,2014-08-16,16.5,,16.5
130,2014-08-17,14.666666666666666,,14.666666666666666
130,2014-08-18,17.041666666666668,,17.041666666666668
130,2014-08-19,20.208333333333332,,20.208333333333332
130,2014-08-20,17.958333333333332,,17.958333333333332
130,2014-08-21,13.541666666666666,,13.541666666666666
130,2014-08-22,11.291666666666666,,11.291666666666666
130,2014-08-23,12.5,,12.5
130,2014-08-24,18.875,,18.875
130,2014-08-25,19.0,,19.0
130,2014-08-26,18.583333333333332,,18.583333333333332
130,2014-08-27,17.791666666666668,,17.791666666666668
130,2014-08-28,16.458333333333332,,16.458333333333332
130,2014-08-29,18.916666666666668,,18.916666666666668
130,2014-08-30,14.083333333333334,,14.083333333333334
130,2014-08-31,7.791666666666667,,7.791666666666667
130,2014-09-01,12.791666666666666,,12.791666666666666
130,2014-09-02,15.333333333333334,,15.333333333333334
130,2014-09-03,16.875,,16.875
130,2014-09-04,17.333333333333332,,17.333333333333332
130,2014-09-05,16.583333333333332,,16.583333333333332
130,2014-09-06,12.875,,12.875
130,2014-09-07,17.458333333333332,,17.458333333333332
130,2014-09-08,12.625,,12.625
130,2014-09-09,7.708333333333333,,7.708333333333333
130,2014-09-10,17.416666666666668,,17.416666666666668
130,2014-09-11,6.75,,6.75
130,2014-09-12,18.416666666666668,,18.416666666666668
130,2014-09-13,4.041666666666667,,4.041666666666667
130,2014-09-14,17.541666666666668,,17.541666666666668
130,2014-09-15,17.875,,17.875
130,2014-09-16,7.25,,7.25
130,2014-09-17,17.583333333333332,,17.583333333333332
130,2014-09-18,14.75,,14.75
130,2014-09-19,17.291666666666668,,17.291666666666668
130,2014-09-20,14.375,,14.375
130,2014-09-21,6.291666666666667,,6.291666666666667
130,2014-09-22,16.916666666666668,,16.916666666666668
130,2014-09-23,17.375,,17.375
130,2014-09-24,12.041666666666666,,12.041666666666666
130,2014-09-25,4.833333333333333,,4.833333333333333
130,2014-09-26,16.833333333333332,,16.833333333333332
130,2014-09-27,16.291666666666668,,16.291666666666668
130,2014-09-28,14.708333333333334,,14.708333333333334
130,2014-09-29,7.583333333333333,,7.583333333333333
130,2014-09-30,3.5833333333333335,,3.5833333333333335
130,2014-10-01,3.3333333333333335,,3.3333333333333335
130,2014-10-02,5.583333333333333,,5.583333333333333
130,2014-10-03,15.666666666666666,,15.666666666666666
130,2014-10-04,1.7083333333333333,,1.7083333333333333
130,2014-10-05,16.125,,16.125
130,2014-10-06,15.541666666666666,,15.541666666666666
130,2014-10-07,9.291666666666666,,9.291666666666666
130,2014-10-08,14.958333333333334,,14.958333333333334
130,2014-10-09,10.875,,10.875
130,2014-10-10,8.958333333333334,,8.958333333333334
130,2014-10-11,3.2083333333333335,,3.2083333333333335
130,2014-10-12,15.5,,15.5
130,2014-10-13,3.5416666666666665,,3.5416666666666665
130,2014-10-14,10.583333333333334,,10.583333333333334
130,2014-10-15,6.625,,6.625
130,2014-10-16,5.75,,5.75
130,2014-10-17,12.875,,12.875
130,2014-10-18,6.541666666666667,,6.541666666666667
130,2014-10-19,12.583333333333334,,12.583333333333334
130,2014-10-20,9.916666666666666,,9.916666666666666
130,2014-10-21,7.0,,7.0
130,2014-10-22,2.5416666666666665,,2.5416666666666665
130,2014-10-23,3.5833333333333335,,3.5833333333333335
130,2014-10-24,4.875,,4.875
130,2014-10-25,12.708333333333334,,12.708333333333334
130,2014-10-26,10.083333333333334,,10.083333333333334
130,2014-10-27,13.291666666666666,,13.291666666666666
130,2014-10-28,8.666666666666666,,8.666666666666666
130,2014-10-29,5.666666666666667,,5.666666666666667
130,2014-10-30,10.916666666666666,,10.916666666666666
130,2014-10-31,5.083333333333333,,5.083333333333333
130,2014-11-01,0.9583333333333334,,0.9583333333333334
130,2014-11-02,10.916666666666666,,10.916666666666666
130,2014-11-03,12.291666666666666,,12.291666666666666
130,2014-11-04,10.916666666666666,,10.916666666666666
130,2014-11-05,3.1666666666666665,,3.1666666666666665
130,2014-11-06,0.3333333333333333,,0.3333333333333333
130,2014-11-07,7.208333333333333,,7.208333333333333
130,2014-11-08,11.25,,11.25
130,2014-11-09,7.125,,7.125
130,2014-11-10,0.0,,0.0
130,2014-11-11,7.458333333333333,,7.458333333333333
130,2014-11-12,3.1666666666666665,,3.1666666666666665
130,2014-11-13,7.25,,7.25
130,2014-11-14,10.25,,10.25
130,2014-11-15,11.208333333333334,,11.208333333333334
130,2014-11-16,2.3333333333333335,,2.3333333333333335
130,2014-11-17,0.625,,0.625
130,2014-11-18,11.125,,11.125
130,2014-11-19,10.875,,10.875
130,2014-11-20,8.625,,8.625
130,2014-11-21,10.166666666666666,,10.166666666666666
130,2014-11-22,9.375,,9.375
130,2014-11-23,6.541666666666667,,6.541666666666667
130,2014-11-24,4.416666666666667,,4.416666666666667
130,2014-11-25,2.8333333333333335,,2.8333333333333335
130,2014-11-26,0.08333333333333333,,0.08333333333333333
130,2014-11-27,3.375,,3.375
130,2014-11-28,8.916666666666666,,8.916666666666666
130,2014-11-29,5.416666666666667,,5.416666666666667
130,2014-11-30,5.708333333333333,,5.708333333333333
130,2014-12-01,4.916666666666667,,4.916666666666667
130,2014-12-02,2.5,,2.5
130,2014-12-03,1.0833333333333333,,1.0833333333333333
130,2014-12-04,8.708333333333334,,8.708333333333334
130,2014-12-05,3.0,,3.0
130,2014-12-06,0.625,,0.625
130,2014-12-07,8.458333333333334,,8.458333333333334
130,2014-12-08,1.75,,1.75
130,2014-12-09,0.08333333333333333,,0.08333333333333333
130,2014-12-10,2.5,,2.5
130,2014-12-11,4.125,,4.125
130,2014-12-12,7.208333333333333,,7.208333333333333
130,2014-12-13,8.5,,8.5
130,2014-12-14,3.5833333333333335,,3.5833333333333335
130,2014-12-15,8.0,,8.0
130,2014-12-16,1.4583333333333333,,1.4583333333333333
130,2014-12-17,5.791666666666667,,5.791666666666667
130,2014-12-18,7.458333333333333,,7.458333333333333
130,2014-12-19,5.291666666666667,,5.291666666666667
130,2014-12-20,2.2916666666666665,,2.2916666666666665
130,2014-12-21,1.75,,1.75
130,2014-12-22,2.7916666666666665,,2.7916666666666665
130,2014-12-23,1.125,,1.125
130,2014-12-24,0.375,,0.375
130,2014-12-25,4.833333333333333,,4.833333333333333
130,2014-12-26,7.791666666666667,,7.791666666666667
130,2014-12-27,7.708333333333333,,7.708333333333333
130,2014-12-28,2.5833333333333335,,2.5833333333333335
130,2014-12-29,7.916666666666667,,7.916666666666667
130,2014-12-30,4.833333333333333,,4.833333333333333
130,2014-12-31,7.208333333333333,,7.208333333333333
130,2015-01-01,8.666666666666666,,8.666666666666666
130,2015-01-02,6.583333333333333,,6.583333333333333
130,2015-01-03,2.0,,2.0
130,2015-01-04,1.0833333333333333,,1.0833333333333333
130,2015-01-05,7.791666666666667,,7.791666666666667
130,2015-01-06,0.7916666666666666,,0.7916666666666666
130,2015-01-07,5.708333333333333,,5.708333333333333
130,2015-01-08,9.25,,9.25
130,2015-01-09,0.5416666666666666,,0.5416666666666666
130,2015-01-10,2.9166666666666665,,2.9166666666666665
130,2015-01-11,2.3333333333333335,,2.3333333333333335
130,2015-01-12,0.6666666666666666,,0.6666666666666666
130,2015-01-13,10.333333333333334,,10.333333333333334
130,2015-01-14,4.541666666666667,,4.541666666666667
130,2015-01-15,7.041666666666667,,7.041666666666667
130,2015-01-16,7.708333333333333,,7.708333333333333
130,2015-01-17,7.458333333333333,,7.458333333333333
130,2015-01-18,0.375,,0.375
130,2015-01-19,5.0,,5.0
130,2015-01-20,8.0,,8.0
130,2015-01-21,6.208333333333333,,6.208333333333333
130,2015-01-22,8.166666666666666,,8.166666666666666
130,2015-01-23,7.666666666666667,,7.666666666666667
130,2015-01-24,0.0,,0.0
130,2015-01-25,0.625,,0.625
130,2015-01-26,0.041666666666666664,,0.041666666666666664
130,2015-01-27,0.5416666666666666,,0.5416666666666666
130,2015-01-28,1.75,,1.75
130,2015-01-29,2.7916666666666665,,2.7916666666666665
130,2015-01-30,0.625,,0.625
130,2015-01-31,4.916666666666667,,4.916666666666667
130,2015-02-01,4.166666666666667,,4.166666666666667
130,2015-02-02,0.08333333333333333,,0.08333333333333333
130,2015-02-03,0.041666666666666664,,0.041666666666666664